Location: Ocean City
(38.3360°N, 75.0850°W)
Time: 00:51:37
(UTC-05:00)

Tiros 1 - Visible Passes

Search period start: 19 November 2019 00:00
Search period end: 29 November 2019 00:00
Orbit: 630 x 664 km, 48.4° (Epoch: 18 November)

Date Brightness Start Highest point End Pass type
(mag) Time Alt. Az. Time Alt. Az. Time Alt. Az.
19 Nov 7.9 18:36:45 10° NW 18:40:46 37° NNE 18:40:46 37° NNE visible
20 Nov 8.4 17:20:38 10° NW 17:24:33 26° N 17:28:14 11° ENE visible
20 Nov 8.1 19:02:44 10° NW 19:05:55 41° NW 19:05:55 41° NW visible
21 Nov 7.9 17:46:44 10° NW 17:51:01 35° NNE 17:53:28 21° ENE visible
21 Nov 8.9 19:28:50 10° WNW 19:31:10 29° WNW 19:31:10 29° WNW visible
22 Nov 7.2 18:12:43 10° NW 18:17:19 60° NNE 18:18:52 38° E visible
22 Nov 9.8 19:55:20 10° WNW 19:56:34 16° W 19:56:34 16° W visible
23 Nov 7.3 18:38:48 10° WNW 18:43:24 68° SW 18:44:27 50° SSE visible
24 Nov 7.3 17:22:42 10° NW 17:27:17 56° NNE 17:31:52 10° ESE visible
24 Nov 8.7 19:05:14 10° WNW 19:09:17 30° SW 19:10:19 27° SSW visible
25 Nov 7.3 17:48:46 10° WNW 17:53:23 74° SW 17:58:02 10° SE visible
25 Nov 9.9 19:32:59 10° WSW 19:34:58 13° SW 19:36:32 11° SSW visible
26 Nov 8.8 18:15:09 10° WNW 18:19:17 32° SW 18:23:26 10° SSE visible
27 Nov 10.0 18:42:37 10° W 18:44:59 14° SW 18:47:20 10° SSW visible
28 Nov 8.8 17:25:04 10° WNW 17:29:16 35° SW 17:33:31 10° SSE visible
